LHX4NJ EDDF-EDDH

Flight info

Callsign LHX4NJ
Flight time 0h 58m
Altitude 35000
Route MARUN3W/25C MARUN Y150 TOLGI DCT SAS/N0399F340 P605 NOLGO NOLGO3P
Aircraft A20N/M-SDE2E3FGILORWXY/HB1

Departure

Time 2026-04-17 13:01
Airport Frankfurt Main Airport (EDDF)

Arrival

Time 2026-04-17 13:59
Airport Hamburg Helmut Schmidt Airport (EDDH)
Time Latitude Longitude Altitude Speed Heading
2026-04-17 12:33 50.04533 8.56582 370 ft 0 kts 115°
2026-04-17 12:49 50.04535 8.56577 372 ft 2 kts 115°
2026-04-17 12:49 50.04542 8.56554 367 ft 2 kts 115°
2026-04-17 12:49 50.04549 8.56531 370 ft 2 kts 115°
2026-04-17 12:49 50.04556 8.56508 368 ft 2 kts 116°
2026-04-17 12:50 50.04566 8.56488 370 ft 2 kts 144°
2026-04-17 12:50 50.04580 8.56477 373 ft 2 kts 167°
2026-04-17 12:50 50.04596 8.56475 371 ft 2 kts 191°
2026-04-17 12:50 50.04600 8.56477 372 ft 0 kts 198°
2026-04-17 12:53 50.04587 8.56467 368 ft 4 kts 203°
2026-04-17 12:53 50.04548 8.56440 370 ft 7 kts 212°
2026-04-17 12:53 50.04510 8.56366 373 ft 10 kts 252°
2026-04-17 12:54 50.04483 8.56247 374 ft 13 kts 250°
2026-04-17 12:54 50.04448 8.56097 374 ft 16 kts 250°
2026-04-17 12:54 50.04363 8.56042 373 ft 16 kts 160°
2026-04-17 12:54 50.04290 8.56160 370 ft 18 kts 90°
2026-04-17 12:55 50.04235 8.56242 371 ft 11 kts 160°
2026-04-17 12:55 50.04154 8.56297 372 ft 14 kts 133°
2026-04-17 12:55 50.04164 8.56440 371 ft 15 kts 69°
2026-04-17 12:55 50.04203 8.56600 370 ft 17 kts 69°
2026-04-17 12:56 50.04247 8.56783 373 ft 19 kts 69°
2026-04-17 12:56 50.04297 8.56988 371 ft 21 kts 71°
2026-04-17 12:56 50.04350 8.57211 370 ft 23 kts 69°
2026-04-17 12:56 50.04408 8.57455 371 ft 25 kts 69°
2026-04-17 12:57 50.04467 8.57704 373 ft 24 kts 69°
2026-04-17 12:57 50.04518 8.57916 362 ft 19 kts 71°
2026-04-17 12:57 50.04562 8.58102 364 ft 17 kts 69°
2026-04-17 12:57 50.04601 8.58265 370 ft 16 kts 69°
2026-04-17 12:58 50.04642 8.58435 364 ft 19 kts 69°
2026-04-17 12:58 50.04597 8.58588 367 ft 18 kts 162°
2026-04-17 12:58 50.04498 8.58611 367 ft 9 kts 216°
2026-04-17 12:58 50.04469 8.58517 372 ft 1 kts 250°
2026-04-17 13:00 50.04400 8.58225 364 ft 67 kts 249°
2026-04-17 13:00 50.04154 8.57190 367 ft 134 kts 250°
2026-04-17 13:01 50.03766 8.55574 491 ft 172 kts 251°
2026-04-17 13:01 50.03351 8.53866 1212 ft 164 kts 249°
2026-04-17 13:01 50.02953 8.52215 1995 ft 166 kts 249°
2026-04-17 13:01 50.02534 8.50498 2564 ft 175 kts 247°
2026-04-17 13:02 50.01799 8.48875 2999 ft 196 kts 221°
2026-04-17 13:02 50.00532 8.47947 3645 ft 209 kts 192°
2026-04-17 13:02 49.99075 8.47704 4530 ft 212 kts 185°
2026-04-17 13:02 49.97609 8.47492 5476 ft 211 kts 188°
2026-04-17 13:03 49.96148 8.47100 6452 ft 214 kts 194°
2026-04-17 13:03 49.94662 8.46473 7204 ft 231 kts 197°
2026-04-17 13:03 49.93085 8.45690 7944 ft 244 kts 202°
2026-04-17 13:03 49.91651 8.44267 8903 ft 248 kts 225°
2026-04-17 13:04 49.90761 8.41962 9845 ft 256 kts 254°
2026-04-17 13:04 49.90727 8.39194 10728 ft 262 kts 284°
2026-04-17 13:04 49.91602 8.36748 11722 ft 264 kts 314°
2026-04-17 13:04 49.93128 8.35146 12583 ft 269 kts 333°
2026-04-17 13:05 49.94934 8.34026 13082 ft 293 kts 343°
2026-04-17 13:05 49.97064 8.33650 13217 ft 324 kts
2026-04-17 13:05 49.99302 8.34440 13216 ft 335 kts 17°
2026-04-17 13:05 50.01462 8.35831 13211 ft 337 kts 24°
2026-04-17 13:06 50.03541 8.37526 13211 ft 338 kts 27°
2026-04-17 13:06 50.05577 8.39334 13321 ft 341 kts 28°
2026-04-17 13:06 50.07653 8.41199 14044 ft 345 kts 28°
2026-04-17 13:06 50.09748 8.43044 14994 ft 346 kts 27°
2026-04-17 13:07 50.11869 8.44863 15884 ft 350 kts 26°
2026-04-17 13:07 50.14030 8.46675 16732 ft 355 kts 26°
2026-04-17 13:07 50.16233 8.48495 17576 ft 361 kts 26°
2026-04-17 13:07 50.18469 8.50330 18403 ft 366 kts 26°
2026-04-17 13:08 50.20737 8.52187 19131 ft 370 kts 25°
2026-04-17 13:08 50.23027 8.54063 19879 ft 373 kts 25°
2026-04-17 13:08 50.25333 8.55956 20623 ft 377 kts 25°
2026-04-17 13:08 50.27666 8.57876 21365 ft 380 kts 25°
2026-04-17 13:09 50.30020 8.59817 22104 ft 384 kts 25°
2026-04-17 13:09 50.32388 8.61774 22835 ft 387 kts 25°
2026-04-17 13:09 50.34787 8.63759 23545 ft 391 kts 25°
2026-04-17 13:09 50.37202 8.65759 24136 ft 395 kts 25°
2026-04-17 13:10 50.39639 8.67780 24717 ft 398 kts 25°
2026-04-17 13:10 50.42095 8.69820 25303 ft 400 kts 25°
2026-04-17 13:10 50.44559 8.71868 25860 ft 403 kts 25°
2026-04-17 13:10 50.47044 8.73936 26394 ft 405 kts 25°
2026-04-17 13:11 50.49537 8.76013 26928 ft 408 kts 25°
2026-04-17 13:11 50.52053 8.78112 27445 ft 410 kts 24°
2026-04-17 13:11 50.54582 8.80223 27959 ft 412 kts 24°
2026-04-17 13:11 50.57120 8.82347 28463 ft 415 kts 24°
2026-04-17 13:12 50.59674 8.84485 28953 ft 417 kts 24°
2026-04-17 13:12 50.64827 8.88806 29879 ft 422 kts 24°
2026-04-17 13:12 50.67427 8.90991 30339 ft 424 kts 24°
2026-04-17 13:13 50.70040 8.93190 30723 ft 427 kts 24°
2026-04-17 13:13 50.72664 8.95401 31094 ft 428 kts 24°
2026-04-17 13:13 50.75296 8.97621 31472 ft 430 kts 24°
2026-04-17 13:13 50.77940 8.99855 31906 ft 430 kts 24°
2026-04-17 13:14 50.80572 9.02084 32435 ft 428 kts 24°
2026-04-17 13:14 50.83187 9.04302 32957 ft 426 kts 23°
2026-04-17 13:14 50.85794 9.06517 33457 ft 424 kts 23°
2026-04-17 13:14 50.88384 9.08717 33943 ft 422 kts 23°
2026-04-17 13:15 50.90968 9.10915 34386 ft 420 kts 23°
2026-04-17 13:15 50.93537 9.13101 34758 ft 419 kts 23°
2026-04-17 13:15 50.96104 9.15288 35089 ft 419 kts 23°
2026-04-17 13:15 50.98686 9.17489 35204 ft 422 kts 23°
2026-04-17 13:16 51.03838 9.21893 35212 ft 420 kts 23°
2026-04-17 13:16 51.08991 9.26281 35211 ft 418 kts 20°
2026-04-17 13:17 51.14423 9.29228 35212 ft 411 kts
2026-04-17 13:17 51.19974 9.31297 35212 ft 410 kts
2026-04-17 13:18 51.25548 9.33198 35209 ft 409 kts
2026-04-17 13:18 51.31114 9.35092 35204 ft 409 kts
2026-04-17 13:19 51.36671 9.37010 35193 ft 409 kts
2026-04-17 13:19 51.42226 9.38946 35210 ft 409 kts
2026-04-17 13:20 51.47782 9.40891 35211 ft 409 kts
2026-04-17 13:20 51.53347 9.42842 35209 ft 409 kts
2026-04-17 13:21 51.58903 9.44796 35206 ft 409 kts
2026-04-17 13:21 51.64459 9.46753 35203 ft 409 kts
2026-04-17 13:22 51.70019 9.48716 35200 ft 409 kts
2026-04-17 13:22 51.75582 9.50686 35198 ft 410 kts
2026-04-17 13:23 51.81142 9.52716 35198 ft 411 kts 11°
2026-04-17 13:23 51.86495 9.56243 35200 ft 418 kts 20°
2026-04-17 13:24 51.90830 9.59715 35208 ft 419 kts 21°
2026-04-17 13:24 51.96021 9.64052 35204 ft 420 kts 21°
2026-04-17 13:25 52.01209 9.68409 35206 ft 420 kts 21°
2026-04-17 13:25 52.06400 9.72752 35206 ft 419 kts 21°
2026-04-17 13:26 52.11589 9.77089 35209 ft 419 kts 21°
2026-04-17 13:26 52.14183 9.79260 35066 ft 418 kts 21°
2026-04-17 13:26 52.16786 9.81439 34274 ft 424 kts 21°
2026-04-17 13:27 52.19419 9.83644 33644 ft 424 kts 21°
2026-04-17 13:27 52.22022 9.85835 33191 ft 419 kts 21°
2026-04-17 13:27 52.24628 9.87853 32719 ft 410 kts 15°
2026-04-17 13:27 52.27317 9.89304 32254 ft 404 kts 12°
2026-04-17 13:28 52.29995 9.90600 31787 ft 400 kts 11°
2026-04-17 13:28 52.32663 9.91815 31323 ft 396 kts 10°
2026-04-17 13:28 52.35309 9.92980 30876 ft 393 kts
2026-04-17 13:28 52.37947 9.94124 30393 ft 391 kts
2026-04-17 13:29 52.40575 9.95262 29873 ft 389 kts
2026-04-17 13:29 52.43186 9.96399 29415 ft 385 kts 10°
2026-04-17 13:29 52.45763 9.97529 28960 ft 382 kts 10°
2026-04-17 13:29 52.48316 9.98654 28489 ft 379 kts 10°
2026-04-17 13:30 52.50860 9.99780 28011 ft 377 kts 10°
2026-04-17 13:30 52.53382 10.00897 27537 ft 375 kts 10°
2026-04-17 13:30 52.55893 10.02013 27064 ft 373 kts 10°
2026-04-17 13:30 52.58384 10.03123 26606 ft 370 kts 10°
2026-04-17 13:31 52.60864 10.04230 26156 ft 368 kts 10°
2026-04-17 13:31 52.63319 10.05327 25698 ft 366 kts 10°
2026-04-17 13:31 52.65777 10.06426 25234 ft 365 kts 11°
2026-04-17 13:31 52.68227 10.07522 24781 ft 364 kts 11°
2026-04-17 13:32 52.70666 10.08615 24330 ft 363 kts 11°
2026-04-17 13:32 52.73098 10.09706 23873 ft 362 kts 11°
2026-04-17 13:32 52.75528 10.10798 23347 ft 361 kts 11°
2026-04-17 13:32 52.77974 10.11513 22880 ft 353 kts
2026-04-17 13:33 52.80411 10.11756 22444 ft 349 kts 358°
2026-04-17 13:33 52.82831 10.11896 22017 ft 346 kts 358°
2026-04-17 13:33 52.85230 10.12001 21568 ft 344 kts 358°
2026-04-17 13:33 52.87618 10.12092 21121 ft 343 kts 357°
2026-04-17 13:34 52.90000 10.12176 20676 ft 341 kts 357°
2026-04-17 13:34 52.92365 10.12257 20239 ft 340 kts 357°
2026-04-17 13:34 52.94722 10.12336 19782 ft 339 kts 357°
2026-04-17 13:34 52.97081 10.12414 19331 ft 338 kts 357°
2026-04-17 13:35 52.99423 10.12492 18887 ft 336 kts 357°
2026-04-17 13:35 53.01763 10.12570 18449 ft 335 kts 358°
2026-04-17 13:35 53.04084 10.12647 17978 ft 333 kts 358°
2026-04-17 13:35 53.06391 10.12724 17547 ft 330 kts 358°
2026-04-17 13:36 53.08673 10.12799 17126 ft 327 kts 358°
2026-04-17 13:36 53.10941 10.12875 16690 ft 326 kts 358°
2026-04-17 13:36 53.13205 10.12950 16252 ft 324 kts 358°
2026-04-17 13:36 53.15451 10.13024 15824 ft 322 kts 358°
2026-04-17 13:37 53.17692 10.13099 15396 ft 321 kts 358°
2026-04-17 13:37 53.19919 10.13173 14972 ft 319 kts 358°
2026-04-17 13:37 53.22138 10.13246 14543 ft 318 kts 358°
2026-04-17 13:37 53.24345 10.13320 14120 ft 317 kts 358°
2026-04-17 13:38 53.26538 10.13393 13661 ft 315 kts 359°
2026-04-17 13:38 53.28716 10.13467 13261 ft 312 kts 359°
2026-04-17 13:38 53.30879 10.13539 12856 ft 310 kts 359°
2026-04-17 13:38 53.33027 10.13611 12439 ft 308 kts 359°
2026-04-17 13:39 53.35169 10.13683 12024 ft 307 kts 359°
2026-04-17 13:39 53.37299 10.13754 11611 ft 305 kts 359°
2026-04-17 13:39 53.39413 10.13790 11211 ft 303 kts 356°
2026-04-17 13:39 53.41516 10.13607 11019 ft 303 kts 354°
2026-04-17 13:40 53.43617 10.13350 10829 ft 303 kts 354°
2026-04-17 13:40 53.45718 10.13081 10654 ft 302 kts 354°
2026-04-17 13:40 53.47813 10.12811 10463 ft 301 kts 354°
2026-04-17 13:40 53.49894 10.12546 10287 ft 298 kts 354°
2026-04-17 13:41 53.51935 10.12286 10103 ft 292 kts 354°
2026-04-17 13:41 53.53934 10.12030 9889 ft 292 kts 354°
2026-04-17 13:41 53.55988 10.11811 9697 ft 292 kts 358°
2026-04-17 13:41 53.57990 10.12347 9518 ft 294 kts 20°
2026-04-17 13:42 53.59700 10.14202 9337 ft 295 kts 43°
2026-04-17 13:42 53.61091 10.16756 9142 ft 296 kts 50°
2026-04-17 13:42 53.62401 10.19423 8949 ft 295 kts 51°
2026-04-17 13:42 53.63702 10.22096 8767 ft 295 kts 50°
2026-04-17 13:43 53.65006 10.24761 8582 ft 294 kts 50°
2026-04-17 13:43 53.66305 10.27404 8396 ft 293 kts 50°
2026-04-17 13:43 53.67606 10.30044 8210 ft 292 kts 50°
2026-04-17 13:43 53.68905 10.32677 8010 ft 291 kts 50°
2026-04-17 13:44 53.70197 10.35293 7613 ft 289 kts 50°
2026-04-17 13:44 53.71479 10.37892 7209 ft 287 kts 50°
2026-04-17 13:44 53.72752 10.40476 6817 ft 286 kts 50°
2026-04-17 13:44 53.74019 10.43048 6416 ft 284 kts 50°
2026-04-17 13:45 53.75275 10.45599 6008 ft 282 kts 51°
2026-04-17 13:45 53.76525 10.48144 5629 ft 279 kts 50°
2026-04-17 13:45 53.77744 10.50624 5408 ft 268 kts 50°
2026-04-17 13:45 53.78898 10.52978 5199 ft 253 kts 50°
2026-04-17 13:46 53.79975 10.55179 5038 ft 233 kts 50°
2026-04-17 13:46 53.80986 10.57241 4696 ft 223 kts 49°
2026-04-17 13:46 53.82079 10.59063 4229 ft 220 kts 36°
2026-04-17 13:46 53.83427 10.60195 3788 ft 214 kts 14°
2026-04-17 13:47 53.84866 10.60440 3366 ft 209 kts 359°
2026-04-17 13:47 53.86284 10.60900 3065 ft 207 kts 28°
2026-04-17 13:47 53.87436 10.62369 3009 ft 208 kts 42°
2026-04-17 13:47 53.88488 10.64037 3013 ft 207 kts 44°
2026-04-17 13:48 53.89529 10.65727 3013 ft 207 kts 44°
2026-04-17 13:48 53.90576 10.67406 3014 ft 207 kts 40°
2026-04-17 13:48 53.91865 10.68340 3023 ft 207 kts
2026-04-17 13:48 53.93267 10.67798 3019 ft 207 kts 328°
2026-04-17 13:49 53.94188 10.66004 3013 ft 208 kts 292°
2026-04-17 13:49 53.94402 10.63599 3016 ft 208 kts 269°
2026-04-17 13:49 53.94310 10.61147 3017 ft 208 kts 265°
2026-04-17 13:49 53.94175 10.58699 3013 ft 209 kts 264°
2026-04-17 13:50 53.94034 10.56211 3017 ft 209 kts 264°
2026-04-17 13:50 53.93897 10.53762 3016 ft 209 kts 264°
2026-04-17 13:50 53.93530 10.51438 3004 ft 207 kts 234°
2026-04-17 13:50 53.92412 10.49997 3020 ft 205 kts 206°
2026-04-17 13:51 53.91122 10.48936 3013 ft 206 kts 204°
2026-04-17 13:51 53.89832 10.47888 3014 ft 206 kts 204°
2026-04-17 13:51 53.88542 10.46828 3016 ft 206 kts 205°
2026-04-17 13:51 53.87256 10.45753 3014 ft 206 kts 206°
2026-04-17 13:52 53.86013 10.44540 3008 ft 207 kts 212°
2026-04-17 13:52 53.84875 10.43052 3008 ft 208 kts 221°
2026-04-17 13:52 53.83877 10.41282 3030 ft 208 kts 227°
2026-04-17 13:52 53.82948 10.39400 3041 ft 209 kts 229°
2026-04-17 13:53 53.82026 10.37507 3054 ft 208 kts 228°
2026-04-17 13:53 53.81101 10.35621 3062 ft 208 kts 229°
2026-04-17 13:53 53.80178 10.33740 3074 ft 208 kts 229°
2026-04-17 13:53 53.79255 10.31854 3079 ft 208 kts 229°
2026-04-17 13:54 53.77422 10.28109 3083 ft 199 kts 227°
2026-04-17 13:54 53.76583 10.26389 3077 ft 181 kts 227°
2026-04-17 13:55 53.75001 10.23167 3070 ft 177 kts 226°
2026-04-17 13:55 53.74215 10.21564 3083 ft 177 kts 226°
2026-04-17 13:55 53.72653 10.18382 2910 ft 175 kts 227°
2026-04-17 13:56 53.71082 10.15181 2389 ft 178 kts 228°
2026-04-17 13:56 53.70299 10.13586 2170 ft 176 kts 228°
2026-04-17 13:56 53.69515 10.11992 1908 ft 177 kts 227°
2026-04-17 13:57 53.68722 10.10379 1660 ft 179 kts 228°
2026-04-17 13:57 53.67933 10.08772 1431 ft 175 kts 228°
2026-04-17 13:57 53.66454 10.05770 963 ft 158 kts 229°
2026-04-17 13:58 53.65768 10.04383 761 ft 151 kts 228°
2026-04-17 13:58 53.64476 10.01745 347 ft 140 kts 226°
2026-04-17 13:58 53.63866 10.00506 174 ft 135 kts 225°
2026-04-17 13:59 53.62807 9.98360 50 ft 91 kts 231°
2026-04-17 13:59 53.62455 9.97648 50 ft 64 kts 230°
2026-04-17 13:59 53.62256 9.97368 52 ft 24 kts 169°
2026-04-17 14:00 53.62181 9.97559 54 ft 20 kts 78°
2026-04-17 14:00 53.62263 9.97755 53 ft 21 kts 50°
2026-04-17 14:00 53.62346 9.97923 53 ft 15 kts 50°
2026-04-17 14:00 53.62415 9.98061 51 ft 16 kts 45°
2026-04-17 14:01 53.62499 9.98182 49 ft 16 kts 40°
2026-04-17 14:01 53.62578 9.98327 52 ft 17 kts 51°
2026-04-17 14:01 53.62656 9.98488 54 ft 18 kts 51°
2026-04-17 14:01 53.62740 9.98655 53 ft 19 kts 50°
2026-04-17 14:02 53.62829 9.98832 51 ft 20 kts 49°
2026-04-17 14:02 53.62920 9.99020 52 ft 21 kts 51°
2026-04-17 14:02 53.63017 9.99214 53 ft 22 kts 51°
2026-04-17 14:02 53.63110 9.99429 50 ft 23 kts 55°
2026-04-17 14:03 53.63209 9.99655 53 ft 24 kts 54°
2026-04-17 14:03 53.63316 9.99837 52 ft 19 kts 50°
2026-04-17 14:03 53.63390 9.99986 51 ft 15 kts 50°
2026-04-17 14:03 53.63426 10.00109 51 ft 12 kts 93°
2026-04-17 14:04 53.63394 10.00163 54 ft 9 kts 176°
2026-04-17 14:04 53.63307 10.00170 48 ft 10 kts 175°
2026-04-17 14:04 53.63285 10.00223 54 ft 3 kts 76°
2026-04-17 14:04 53.63291 10.00267 51 ft 5 kts 78°
2026-04-17 14:05 53.63293 10.00306 54 ft 5 kts 88°
2026-04-17 14:05 53.63294 10.00351 54 ft 1 kts 87°
2026-04-17 14:05 53.63294 10.00356 54 ft 0 kts 87°